Location: *
(46.1833°N, 22.7667°E)
Time: 13:38:45
(UTC+00:00)

Cosmos 2333 - Visible Passes

Search period start: 15 December 2019 00:00
Search period end: 25 December 2019 00:00
Orbit: 828 x 867 km, 70.9° (Epoch: 14 December)

Date Brightness Start Highest point End Pass type
(mag) Time Alt. Az. Time Alt. Az. Time Alt. Az.
15 Dec 6.5 15:54:30 10° W 15:58:08 17° NW 16:01:47 10° N visible
16 Dec 6.4 15:41:16 10° W 15:44:55 17° NW 15:48:36 10° N visible
17 Dec 6.4 15:28:01 10° W 15:31:42 17° NW 15:35:26 10° N visible
18 Dec 6.4 15:14:46 10° W 15:18:30 17° NW 15:22:16 10° N visible
